[[{"header":{"parameterUnit":"m.s-1","parameterCategory":1,"la1":30.2991,"la2":30.254,"lo1":-89.0895,"lo2":-89.0444,"dy":0.0017,"dx":0.0017,"nx":28,"ny":28,"refTime":"2024-04-09T09:00:00:Z","depth":0,"parameterNumber":2,"parameterNumberName":"U-component_of_WINDS"},"data":[0,0,0,0,0,0,0,0,0,0,0,0,0,0,0,0,0,0,0,0,0,0,0,0,0,0,0,0,0,0,0,0,0,0,0,0,0,0,0,0,0,0,0,0,0,0,0,0,0,0,0,0,0,0,0,0,0,0,-5.1273,-5.1275,0,-5.1418,-5.142,-5.1422,-5.1432,-5.1431,-5.1429,-5.1428,-5.1574,-5.1579,-5.1585,0,0,0,0,0,0,0,0,0,0,0,0,0,-5.1003,-5.1008,-5.1273,-5.1275,-5.1277,-5.1418,-5.142,-5.1422,-5.1433,-5.1431,-5.1429,-5.1427,-5.1572,-5.1579,-5.1585,0,0,0,0,0,0,0,0,0,0,0,0,0,-5.1131,-5.1009,-5.1273,-5.1299,-5.1303,-5.1418,-5.142,-5.1423,-5.1433,-5.1431,-5.1428,-5.1426,-5.157,-5.1578,-5.1586,-5.1684,0,0,-5.1611,-5.1614,0,0,0,0,0,0,0,0,-5.1124,-5.1141,-5.1293,-5.1297,-5.1302,-5.1405,-5.1379,-5.151,-5.1434,-5.1383,-5.1428,-5.1425,-5.1519,-5.1532,-5.1564,-5.1691,-5.1697,-5.1611,-5.1616,-5.162,-5.1622,0,0,0,0,0,0,0,-5.1115,-5.1135,-5.133,-5.1295,-5.1301,-5.1303,-5.1319,-5.1404,-5.1463,-5.1388,-5.1389,-5.1406,-5.1521,-5.1556,-5.1568,-5.1699,-5.1611,-5.1618,-5.1623,-5.1626,-5.1914,-5.1917,0,0,0,0,0,0,-5.1101,-5.1127,-5.1326,-5.1335,-5.1205,-5.131,-5.1327,-5.1374,-5.1462,-5.1473,-5.1408,-5.1406,-5.1544,-5.1558,-5.1573,-5.1693,-5.162,-5.1627,-5.1632,-5.1911,-5.1915,-5.1918,0,0,0,0,0,0,-5.1095,-5.1119,-5.132,-5.1232,-5.1257,-5.1317,-5.137,-5.1378,-5.1413,-5.1478,-5.1488,-5.1433,-5.1542,-5.1561,-5.1657,-5.1698,-5.1631,-5.1638,-5.1908,-5.1912,-5.1916,-5.1934,0,0,0,0,0,0,-5.1088,-5.1117,-5.1155,-5.1232,-5.1262,-5.1401,-5.1372,-5.1383,-5.1427,-5.1426,-5.1504,-5.1514,-5.1542,-5.1644,-5.1665,-5.1708,-5.1645,-5.1905,-5.191,-5.1915,-5.193,-5.1938,-5.1945,0,0,0,0,0,-5.1078,-5.1153,-5.1156,-5.118,-5.1311,-5.1404,-5.1421,-5.1452,-5.1431,-5.1469,-5.1511,-5.1512,-5.1691,-5.1654,-5.1677,-5.1723,-5.1902,-5.1909,-5.1915,-5.1926,-5.1936,-5.1945,0,0,0,0,0,0,-5.1077,-5.1164,-5.1168,-5.1271,-5.133,-5.1405,-5.1454,-5.1462,-5.1527,-5.1523,-5.1559,-5.1576,-5.167,-5.1707,-5.1664,-5.1823,-5.1794,-5.1805,-5.1795,-5.1805,-5.1813,-5.1801,-5.1651,0,0,0,0,0,-5.1089,-5.1158,-5.123,-5.1314,-5.1343,-5.1394,-5.1436,-5.1455,-5.1517,-5.1542,-5.1591,-5.165,-5.172,-5.1765,-5.1833,-5.1936,-5.1953,-5.198,-5.1987,-5.1993,-5.2001,-5.2058,-5.2071,-5.1938,-5.1938,-5.1938,0,0,-5.1114,-5.117,-5.1211,-5.1315,-5.1363,-5.1433,-5.1415,-5.149,-5.1542,-5.1553,-5.1645,-5.1684,-5.1753,-5.1852,-5.1899,-5.1886,-5.2042,-5.2001,-5.2006,-5.2011,-5.2066,-5.2079,-5.209,-5.1943,-5.1942,-5.1941,0,0,-5.1195,-5.1245,-5.132,-5.1369,-5.1443,-5.1476,-5.1495,-5.157,-5.1596,-5.169,-5.17,-5.1763,-5.1882,-5.1931,-5.1972,-5.2074,-5.2077,-5.2095,-5.2134,-5.2189,-5.22,-5.2209,-5.2244,-5.2256,-5.2104,-5.2104,-5.2104,0,-5.1216,-5.1323,-5.1357,-5.1432,-5.1477,-5.1493,-5.1569,-5.1615,-5.1707,-5.1737,-5.1722,-5.1873,-5.1921,-5.2032,-5.2057,-5.209,-5.2111,-5.2085,-5.2196,-5.2205,-5.2215,-5.2248,-5.2262,-5.2106,-5.2105,-5.2105,-5.2105,0,-5.1344,-5.1418,-5.147,-5.1559,-5.1611,-5.1686,-5.1731,-5.1779,-5.1795,-5.183,-5.1926,-5.1985,-5.2065,-5.2093,-5.2109,-5.2207,-5.2196,-5.2188,-5.2159,-5.2228,-5.226,-5.2274,-5.2108,-5.2107,-5.2107,-5.2106,0,0,-5.1425,-5.1535,-5.1553,-5.1594,-5.1678,-5.1735,-5.1811,-5.1891,-5.1931,-5.1995,-5.2058,-5.2161,-5.2154,-5.22,-5.2222,-5.2271,-5.2347,-5.2257,-5.2259,-5.227,-5.2457,-5.2461,-5.2475,-5.2351,-5.2353,-5.2355,-5.2451,0,-5.1514,-5.165,-5.1684,-5.18,-5.1869,-5.1886,-5.1952,-5.2011,-5.2047,-5.211,-5.2149,-5.222,-5.2207,-5.2235,-5.2284,-5.2327,-5.2384,-5.2321,-5.2409,-5.2412,-5.2388,-5.2492,-5.2496,-5.2583,-5.2464,-5.2466,-5.2467,0,-5.1634,-5.1702,-5.1824,-5.19,-5.193,-5.1989,-5.2065,-5.2126,-5.2192,-5.2215,-5.2268,-5.2285,-5.2365,-5.2335,-5.2445,-5.2401,-5.244,-5.2466,-5.2471,-5.2477,-5.2441,-5.25,-5.2611,-5.2623,-5.2488,-5.2486,-5.2485,0,-5.1679,-5.18,-5.189,-5.1924,-5.2015,-5.2056,-5.2096,-5.2161,-5.2207,-5.2273,-5.2303,-5.2378,-5.2419,-5.2476,-5.2514,-5.2488,-5.262,-5.2593,-5.264,-5.2639,-5.2664,-5.2662,-5.2781,-5.2694,-5.2693,-5.2693,-5.2693,0,-5.1772,-5.1846,-5.1911,-5.1965,-5.2049,-5.2089,-5.217,-5.221,-5.2268,-5.233,-5.2351,-5.2409,-5.2456,-5.2521,-5.2551,-5.2636,-5.2655,-5.2675,-5.2681,-5.2672,-5.2669,-5.2695,-5.2689,-5.2697,-5.2696,-5.2695,-5.2695,0,-5.1834,-5.1881,-5.1979,-5.2058,-5.208,-5.2138,-5.2205,-5.2258,-5.2296,-5.2375,-5.2396,-5.2454,-5.2531,-5.2576,-5.2672,-5.2693,-5.2788,-5.2792,-5.2765,-5.2767,-5.2811,-5.2805,-5.2949,-5.2969,-5.287,-5.2871,-5.2872,0,-5.1889,-5.1947,-5.2033,-5.2077,-5.2117,-5.2187,-5.2235,-5.2277,-5.2325,-5.2407,-5.2451,-5.253,-5.2594,-5.2717,-5.2767,-5.2842,-5.2847,-5.2893,-5.2858,-5.2847,-5.2845,-5.2841,-5.2846,-5.2897,-5.2898,-5.2899,-5.29,0,-5.1982,-5.2003,-5.207,-5.2147,-5.2203,-5.2266,-5.2327,-5.2362,-5.2414,-5.2468,-5.2547,-5.2598,-5.2698,-5.2775,-5.2854,-5.2895,-5.2906,-5.2911,-5.2925,-5.2914,-5.2895,-5.2904,-5.2778,-5.2906,-5.2906,-5.2905,-5.2905,-5.2905,-5.2041,-5.2093,-5.2162,-5.2237,-5.2288,-5.2346,-5.24,-5.2445,-5.2513,-5.2597,-5.2619,-5.2702,-5.2769,-5.2876,-5.2919,-5.2985,-5.2977,-5.2998,-5.3003,-5.3007,-5.3007,-5.2887,-5.3,-5.3,-5.3,-5.3,-5.2999,0,-5.2133,-5.2179,-5.2248,-5.2334,-5.2393,-5.2401,-5.247,-5.2518,-5.2592,-5.2654,-5.2718,-5.281,-5.2886,-5.2944,-5.3021,-5.3063,-5.307,-5.3081,-5.3077,-5.3086,-5.3011,-5.299,-5.3074,-5.3074,-5.3074,-5.3074,-5.3074,-5.3074,-5.2187,-5.2275,-5.2304,-5.2418,-5.2464,-5.2546,-5.2585,-5.2638,-5.2688,-5.2789,-5.2853,-5.2891,-5.2951,-5.3034,-5.3104,-5.3119,-5.3146,-5.3156,-5.3172,-5.31,-5.3091,-5.3084,-5.3064,-5.3162,-5.3162,-5.3241,-5.3242,-5.3242]},{"header":{"parameterUnit":"m.s-1","parameterCategory":1,"la1":30.2991,"la2":30.254,"lo1":-89.0895,"lo2":-89.0444,"dy":0.0017,"dx":0.0017,"nx":28,"ny":28,"refTime":"2024-04-09T09:00:00:Z","depth":0,"parameterNumber":3,"parameterNumberName":"V-component_of_WINDS"},"data":[0,0,0,0,0,0,0,0,0,0,0,0,0,0,0,0,0,0,0,0,0,0,0,0,0,0,0,0,0,0,0,0,0,0,0,0,0,0,0,0,0,0,0,0,0,0,0,0,0,0,0,0,0,0,0,0,0,0,5.5453,5.5455,0,5.5589,5.559,5.5592,5.5591,5.559,5.5588,5.5586,5.5721,5.5726,5.5731,0,0,0,0,0,0,0,0,0,0,0,0,0,5.5191,5.5196,5.5453,5.5455,5.5457,5.5589,5.559,5.5592,5.5592,5.5589,5.5587,5.5585,5.5719,5.5725,5.5731,0,0,0,0,0,0,0,0,0,0,0,0,0,5.5313,5.5197,5.5453,5.5472,5.5475,5.5588,5.5591,5.5593,5.5592,5.5589,5.5587,5.5584,5.5717,5.5724,5.5732,5.5833,0,0,5.5756,5.5759,0,0,0,0,0,0,0,0,5.5306,5.5323,5.5468,5.5471,5.5475,5.5571,5.5547,5.5673,5.5593,5.5548,5.5586,5.5583,5.5672,5.5684,5.5715,5.584,5.5845,5.5757,5.5762,5.5765,5.5767,0,0,0,0,0,0,0,5.5298,5.5317,5.5507,5.547,5.5474,5.5473,5.5488,5.5571,5.5623,5.5551,5.5552,5.5568,5.5674,5.5707,5.5718,5.5847,5.5757,5.5764,5.5768,5.5771,5.6064,5.6067,0,0,0,0,0,0,5.5286,5.531,5.5502,5.5511,5.5382,5.548,5.5496,5.5542,5.5622,5.5632,5.557,5.5567,5.5695,5.5709,5.5723,5.5848,5.5765,5.5772,5.5777,5.6061,5.6065,5.6068,0,0,0,0,0,0,5.528,5.5303,5.5497,5.5411,5.5435,5.5487,5.5539,5.5546,5.558,5.5636,5.5645,5.5595,5.5694,5.5712,5.5807,5.5853,5.5776,5.5783,5.6057,5.6062,5.6066,5.6099,0,0,0,0,0,0,5.5273,5.5301,5.5341,5.5412,5.544,5.558,5.5542,5.5551,5.5594,5.5592,5.5662,5.5671,5.5693,5.5795,5.5815,5.5862,5.5789,5.6053,5.606,5.6065,5.6094,5.6104,5.6113,0,0,0,0,0,5.5263,5.5343,5.5343,5.5366,5.5491,5.5582,5.5598,5.5623,5.5598,5.5638,5.5674,5.5669,5.5845,5.5805,5.5827,5.5877,5.6051,5.6058,5.6065,5.609,5.6102,5.6113,0,0,0,0,0,0,5.5274,5.5353,5.5353,5.5458,5.5514,5.5582,5.5633,5.5635,5.5698,5.5693,5.572,5.5736,5.5831,5.5863,5.5818,5.5981,5.5944,5.5956,5.5956,5.5968,5.5978,5.5968,5.5795,0,0,0,0,0,5.5289,5.5358,5.5422,5.5509,5.5537,5.558,5.5621,5.5636,5.5694,5.5717,5.576,5.5816,5.5884,5.5927,5.5993,5.6099,5.6114,5.6144,5.6154,5.6161,5.6171,5.6231,5.6246,5.6091,5.6091,5.6091,0,0,5.532,5.5371,5.5413,5.5512,5.5557,5.5628,5.56,5.5675,5.5728,5.5728,5.5821,5.5855,5.5918,5.602,5.6067,5.605,5.6217,5.617,5.6176,5.6182,5.624,5.6254,5.6267,5.6095,5.6095,5.6094,0,0,5.5413,5.5458,5.5537,5.5583,5.5652,5.568,5.5699,5.5768,5.5791,5.5885,5.5888,5.5949,5.6065,5.6111,5.615,5.6262,5.626,5.6282,5.6332,5.639,5.6402,5.6413,5.6455,5.6469,5.6292,5.6292,5.6292,0,5.5443,5.555,5.5576,5.5653,5.5697,5.5702,5.5782,5.5824,5.591,5.594,5.5921,5.6068,5.6111,5.6224,5.6252,5.6282,5.6305,5.6275,5.6399,5.641,5.642,5.646,5.6476,5.6294,5.6294,5.6294,5.6294,0,5.5584,5.5658,5.5713,5.5799,5.5848,5.5926,5.5963,5.601,5.6021,5.6051,5.6148,5.62,5.6277,5.6305,5.6314,5.642,5.6408,5.6393,5.6357,5.6437,5.6475,5.6491,5.6298,5.6297,5.6296,5.6296,0,0,5.5687,5.5788,5.5807,5.5847,5.5924,5.5982,5.6059,5.6137,5.6178,5.6236,5.6303,5.6402,5.6389,5.6433,5.6448,5.6499,5.6587,5.6478,5.648,5.6498,5.6708,5.6719,5.6737,5.6586,5.6589,5.6591,5.6703,0,5.5789,5.593,5.5956,5.6078,5.6148,5.6154,5.6222,5.6276,5.6307,5.637,5.6403,5.6474,5.6451,5.6478,5.6529,5.6565,5.6629,5.6557,5.6647,5.665,5.6633,5.6756,5.6769,5.6872,5.6718,5.672,5.6722,0,5.5928,5.5993,5.6122,5.6192,5.6222,5.6283,5.6357,5.6417,5.6479,5.6497,5.6548,5.6557,5.6638,5.6598,5.671,5.666,5.6699,5.6722,5.6727,5.6737,5.6692,5.6771,5.6905,5.6921,5.6745,5.6744,5.6742,0,5.5993,5.6112,5.6206,5.6239,5.6322,5.6365,5.6402,5.6461,5.6506,5.657,5.66,5.6671,5.6711,5.6766,5.6795,5.6763,5.6905,5.6867,5.6923,5.6923,5.6953,5.6951,5.7097,5.6976,5.6976,5.6975,5.6975,0,5.6105,5.6184,5.6237,5.6294,5.6383,5.6412,5.6499,5.6535,5.6588,5.6652,5.6661,5.6721,5.6755,5.6819,5.6842,5.6932,5.6949,5.6967,5.6972,5.6967,5.6965,5.6993,5.6987,5.6979,5.6978,5.6978,5.6977,0,5.6193,5.6231,5.6334,5.6405,5.6424,5.6487,5.6547,5.6603,5.6634,5.6716,5.6736,5.6785,5.6861,5.6896,5.6989,5.7005,5.7108,5.7107,5.7088,5.709,5.7145,5.714,5.7315,5.734,5.72,5.7202,5.7203,0,5.6263,5.6324,5.6403,5.6448,5.6486,5.6557,5.6604,5.6635,5.6683,5.6759,5.6806,5.6884,5.6948,5.707,5.7113,5.7185,5.7187,5.7243,5.7198,5.7191,5.719,5.7186,5.7193,5.7252,5.7253,5.7254,5.7255,0,5.6384,5.64,5.6468,5.6544,5.66,5.6661,5.672,5.6755,5.6795,5.6849,5.6929,5.6979,5.7076,5.7153,5.7228,5.7264,5.7267,5.7269,5.7286,5.7282,5.7269,5.7279,5.7112,5.7265,5.7264,5.7263,5.7263,5.7262,5.6466,5.6522,5.6587,5.6663,5.6711,5.6766,5.6823,5.6862,5.693,5.7013,5.7026,5.7112,5.7173,5.7274,5.7314,5.738,5.7367,5.7391,5.7397,5.7403,5.7408,5.7258,5.7394,5.7393,5.7393,5.7393,5.7393,0,5.6589,5.6632,5.6701,5.6785,5.6845,5.6843,5.6909,5.6959,5.7034,5.7092,5.7155,5.7247,5.7322,5.7372,5.7448,5.7492,5.7495,5.7511,5.7508,5.7517,5.7415,5.7393,5.7507,5.7507,5.7507,5.7507,5.7507,5.7507,5.6661,5.6756,5.678,5.6899,5.694,5.7025,5.7063,5.7114,5.7161,5.7264,5.7327,5.7359,5.7414,5.7494,5.7563,5.7575,5.7603,5.762,5.7632,5.7536,5.7524,5.7513,5.7493,5.7626,5.7626,5.7729,5.773,5.7731]}]]